User: anonymous   Login
Location: Haliburton Scout Reserve
(45.0900°N, 78.3200°W)
Time: 12:08:52
(UTC-04:00)
Language:

IDEFIX/ARIANE 42P - Orbit

View from above orbital plane
View from above orbital plane
View from above satellite
View from above satellite

Ground track
Ground track

The orbit data is extracted from the following two-line orbital elements,

1 27422U 02021B   16147.65043292  .00000000  00000-0  16039-4 0  9995
2 27422  98.2308 163.3622 0011173 306.5001  53.5152 14.29242868731468
Epoch (UTC): 26 May 2016 15:36:37
Eccentricity: 0.0011173
inclination: 98.2308°
perigee height: 786 km
apogee height: 802 km
right ascension of ascending node: 163.3622°
argument of perigee: 306.5001°
revolutions per day: 14.29242868
mean anomaly at epoch: 53.5152°
orbit number at epoch: 73146

The dashed part of the orbit path shows where the satellite is in the earth's shadow,  

DLR